Weather History for South Pass, WY

Change the Weather History Date:

Sunday, October 20, 2013

  Actual Average (KLND) Record (KLND)
Temperature  
Mean Temperature 36 °F 44 °F  
Max Temperature 41 °F 57 °F 81 °F (1921)
Min Temperature 30 °F 31 °F 5 °F (1932)
Degree Days  
Heating Degree Days 30 21  
Month to date heating degree days 346  
Since 1 July heating degree days 605  
Cooling Degree Days 0 0  
Month to date cooling degree days 0  
Year to date cooling degree days 472  
Moisture  
Dew Point 28 °F    
Average Humidity 84    
Maximum Humidity 100    
Minimum Humidity 36    
Precipitation  
Precipitation 0.05 in 0.04 in 1.07 in (1906)
Month to date precipitation 0.88  
Year to date precipitation 10.81  
Snow  
Snow 0.00 in 0.40 in - ()
Month to date snowfall 5.8  
Since 1 July snowfall 8.5  
Since 1 September snowfall 8.5  
Snow Depth -    
Sea Level Pressure  
Sea Level Pressure 30.02 in    
Wind  
Wind Speed 8 mph (North)    
Max Wind Speed 21 mph    
Max Gust Speed 30 mph    
Visibility 8 miles    
Events Rain , Snow    
T = Trace of Precipitation, MM = Missing Value Source: NWS Daily Summary

Daily Weather History Graph

Daily Weather History Graph

Search for Another Location

Airport:

Trip Planner

Search our weather history database for the weather conditions in past years. The results will help you decide how hot, cold, wet, or windy it might be!

Date:

Astronomy

Oct. 20, 2013 Rise Set
Actual Time 7:34 AM MDT 6:24 PM MDT
Civil Twilight 7:05 AM MDT 6:53 PM MDT
Nautical Twilight 6:32 AM MDT 7:25 PM MDT
Astronomical Twilight 6:00 AM MDT 7:58 PM MDT
Moon 7:32 PM MDT (10/20) 9:17 AM MDT (10/20)
Length of Visible Light 11h 47m
Length of Day
10h 50m
Full, 97% of the Moon is Illuminated
Oct 20
Full
Oct 26
Last Quarter
Nov 3
New
Nov 9
First Quarter
Nov 17
Full

Hourly Weather History & Observations

Time (MDT) Temp. Windchill Dew Point Humidity Pressure Visibility Wind Dir Wind Speed Gust Speed Precip Events Conditions
12:15 AM 39.2 °F 34.2 °F 19.4 °F 45% 30.00 in 10.0 mi West 6.9 mph - N/A   Mostly Cloudy
12:35 AM 37.4 °F - 21.2 °F 52% 29.98 in 10.0 mi Calm Calm - N/A   Overcast
12:55 AM 37.4 °F 34.9 °F 19.4 °F 48% 29.98 in 10.0 mi North 3.5 mph - N/A   Overcast
1:15 AM 41.0 °F 33.5 °F 15.8 °F 36% 29.97 in 10.0 mi West 13.8 mph 18.4 mph N/A   Mostly Cloudy
1:35 AM 39.2 °F 32.5 °F 19.4 °F 45% 29.98 in 10.0 mi West 10.4 mph - N/A   Mostly Cloudy
1:55 AM 39.2 °F 33.0 °F 19.4 °F 45% 29.97 in 10.0 mi West 9.2 mph - N/A   Overcast
2:15 AM 37.4 °F 31.4 °F 19.4 °F 48% 29.97 in 10.0 mi West 8.1 mph - N/A   Overcast
2:35 AM 35.6 °F 28.0 °F 21.2 °F 56% 29.97 in 10.0 mi WSW 10.4 mph - N/A   Overcast
2:55 AM 35.6 °F 29.2 °F 19.4 °F 52% 29.96 in 10.0 mi West 8.1 mph - N/A   Mostly Cloudy
3:15 AM 41.0 °F 35.8 °F 17.6 °F 39% 29.96 in 10.0 mi West 8.1 mph - N/A   Overcast
3:35 AM 39.2 °F 37.0 °F 17.6 °F 42% 29.96 in 10.0 mi NNW 3.5 mph - N/A   Overcast
3:55 AM 35.6 °F 32.8 °F 21.2 °F 56% 29.97 in 10.0 mi ENE 3.5 mph - N/A   Overcast
4:15 AM 37.4 °F 34.9 °F 21.2 °F 52% 29.96 in 10.0 mi NE 3.5 mph - N/A   Overcast
4:35 AM 35.6 °F 31.7 °F 23.0 °F 60% 29.96 in 10.0 mi North 4.6 mph - N/A   Overcast
4:55 AM 35.6 °F 28.6 °F 23.0 °F 60% 29.97 in 10.0 mi North 9.2 mph - N/A   Overcast
5:15 AM 33.8 °F 27.0 °F 28.4 °F 81% 29.98 in 10.0 mi NNW 8.1 mph - N/A   Overcast
5:35 AM 32.0 °F 23.6 °F 28.4 °F 87% 29.98 in 10.0 mi North 10.4 mph 17.3 mph N/A   Overcast
5:55 AM 32.0 °F 21.6 °F 28.4 °F 87% 29.98 in 10.0 mi NNW 15.0 mph 18.4 mph N/A   Overcast
6:15 AM 32.0 °F 20.8 °F 28.4 °F 87% 29.97 in 10.0 mi NNW 17.3 mph - N/A   Overcast
6:35 AM 32.0 °F 25.6 °F 28.4 °F 87% 29.98 in 10.0 mi North 6.9 mph - N/A   Overcast
6:55 AM 32.0 °F 21.2 °F 30.2 °F 93% 29.99 in 10.0 mi North 16.1 mph 23.0 mph N/A   Overcast
7:15 AM 32.0 °F 23.0 °F 30.2 °F 93% 30.00 in 3.0 mi North 11.5 mph 19.6 mph N/A Snow Light Snow
7:35 AM 32.0 °F 22.5 °F 30.2 °F 93% 30.00 in 1.5 mi North 12.7 mph 19.6 mph N/A Snow Light Snow
7:55 AM 30.2 °F 20.8 °F 30.2 °F 100% 30.00 in 2.0 mi North 11.5 mph 19.6 mph N/A Snow Light Snow
8:15 AM 30.2 °F 20.2 °F 28.4 °F 93% 30.01 in 1.0 mi North 12.7 mph 17.3 mph N/A Snow Light Snow
8:35 AM 30.2 °F 20.2 °F 28.4 °F 93% 30.01 in 1.8 mi NNE 12.7 mph 17.3 mph N/A Snow Light Snow
8:55 AM 30.2 °F 19.3 °F 28.4 °F 93% 30.01 in 5.0 mi North 15.0 mph 21.9 mph N/A   Overcast
9:15 AM 30.2 °F 19.3 °F 28.4 °F 93% 30.02 in 2.5 mi North 15.0 mph 24.2 mph N/A Snow Light Snow
9:35 AM 30.2 °F 18.5 °F 28.4 °F 93% 30.02 in 4.0 mi North 17.3 mph 24.2 mph N/A   Overcast
9:55 AM 30.2 °F 18.5 °F 28.4 °F 93% 30.02 in 7.0 mi North 17.3 mph 25.3 mph N/A   Mostly Cloudy
10:15 AM 32.0 °F 19.8 °F 28.4 °F 87% 30.02 in 10.0 mi North 20.7 mph 29.9 mph N/A   Overcast
10:35 AM 30.2 °F 18.5 °F 26.6 °F 86% 30.04 in 10.0 mi North 17.3 mph 26.5 mph N/A   Mostly Cloudy
10:55 AM 30.2 °F 18.5 °F 28.4 °F 93% 30.04 in 7.0 mi NNE 17.3 mph 23.0 mph N/A Snow Light Snow
11:15 AM 30.2 °F 18.9 °F 28.4 °F 93% 30.05 in 10.0 mi North 16.1 mph 21.9 mph N/A   Overcast
11:35 AM 30.2 °F 19.8 °F 28.4 °F 93% 30.04 in 10.0 mi North 13.8 mph - N/A   Overcast
11:55 AM 32.0 °F 22.5 °F 28.4 °F 87% 30.04 in 10.0 mi North 12.7 mph - N/A   Overcast
12:15 PM 32.0 °F 22.5 °F 28.4 °F 87% 30.04 in 10.0 mi North 12.7 mph 18.4 mph N/A   Overcast
12:35 PM 32.0 °F 22.5 °F 30.2 °F 93% 30.04 in 10.0 mi North 12.7 mph - N/A   Overcast
12:55 PM 33.8 °F 27.0 °F 30.2 °F 87% 30.04 in 10.0 mi North 8.1 mph - N/A   Overcast
1:15 PM 32.0 °F 24.2 °F 28.4 °F 87% 30.03 in 7.0 mi North 9.2 mph - N/A Snow Light Snow
1:35 PM 32.0 °F 25.6 °F 30.2 °F 93% 30.03 in 4.0 mi NNE 6.9 mph - N/A Snow Light Snow
1:55 PM 33.8 °F 27.7 °F 30.2 °F 87% 30.03 in 7.0 mi NE 6.9 mph - N/A Snow Light Snow
2:15 PM 32.0 °F 25.6 °F 30.2 °F 93% 30.03 in 2.5 mi NNE 6.9 mph - N/A Snow Light Snow
2:35 PM 32.0 °F 25.6 °F 32.0 °F 100% 30.03 in 1.2 mi NNE 6.9 mph - N/A Snow Light Snow
2:55 PM 32.0 °F 26.4 °F 30.2 °F 93% 30.03 in 2.5 mi NNE 5.8 mph - N/A Snow Light Snow
3:15 PM 32.0 °F 27.5 °F 30.2 °F 93% 30.03 in 0.5 mi NE 4.6 mph - N/A Snow Light Snow
3:35 PM 32.0 °F 26.4 °F 30.2 °F 93% 30.03 in 0.5 mi NNE 5.8 mph - N/A Snow Snow
3:55 PM 32.0 °F 28.7 °F 30.2 °F 93% 30.03 in 0.5 mi NE 3.5 mph - N/A Snow Snow
4:15 PM 32.0 °F - 30.2 °F 93% 30.03 in 0.2 mi Calm Calm - N/A Snow Heavy Snow
4:35 PM 32.0 °F - 30.2 °F 93% 30.03 in 0.5 mi Calm Calm - N/A Snow Snow
4:55 PM 32.0 °F - 32.0 °F 100% 30.03 in 1.8 mi Calm Calm - N/A Snow Light Snow
5:15 PM 32.0 °F - 32.0 °F 100% 30.03 in 4.0 mi Calm Calm - N/A Rain Light Rain
5:35 PM 32.0 °F - 32.0 °F 100% 30.04 in 10.0 mi Calm Calm - 0.04 in   Unknown
5:55 PM 32.0 °F - 32.0 °F 100% 30.04 in 10.0 mi Calm Calm - 0.05 in   Unknown
6:15 PM 32.0 °F 28.7 °F 32.0 °F 100% 30.05 in 10.0 mi SE 3.5 mph - N/A   Unknown
6:35 PM 32.0 °F - 32.0 °F 100% 30.05 in 10.0 mi Calm Calm - N/A   Overcast
6:55 PM 32.0 °F - 30.2 °F 93% 30.06 in 10.0 mi Calm Calm - N/A   Overcast
7:15 PM 32.0 °F - 32.0 °F 100% 30.06 in 7.0 mi Calm Calm - N/A Snow Light Snow
7:35 PM 32.0 °F 28.7 °F 30.2 °F 93% 30.07 in 7.0 mi North 3.5 mph - N/A Snow Light Snow
7:55 PM 32.0 °F - 30.2 °F 93% 30.07 in 10.0 mi Calm Calm - N/A   Overcast
8:15 PM 32.0 °F 26.4 °F 30.2 °F 93% 30.07 in 10.0 mi NNW 5.8 mph - N/A   Scattered Clouds
8:35 PM 30.2 °F 26.7 °F 30.2 °F 100% 30.07 in 10.0 mi NNE 3.5 mph - N/A   Clear
8:55 PM 30.2 °F - 30.2 °F 100% 30.07 in 10.0 mi Calm Calm - N/A   Clear
9:15 PM 30.2 °F - 30.2 °F 100% 30.07 in 10.0 mi Calm Calm - N/A   Clear
9:35 PM 30.2 °F - 30.2 °F 100% 30.07 in 10.0 mi Calm Calm - N/A   Clear
9:55 PM 30.2 °F 26.7 °F 30.2 °F 100% 30.07 in 10.0 mi South 3.5 mph - N/A   Clear
10:15 PM 30.2 °F - 30.2 °F 100% 30.08 in 10.0 mi Calm Calm - N/A   Clear
10:35 PM 30.2 °F - 28.4 °F 93% 30.09 in 10.0 mi Calm Calm - N/A   Clear
10:55 PM 30.2 °F 25.4 °F 30.2 °F 100% 30.09 in 10.0 mi WSW 4.6 mph - N/A   Clear
11:15 PM 30.2 °F 25.4 °F 30.2 °F 100% 30.09 in 10.0 mi WSW 4.6 mph - N/A   Clear
11:35 PM 30.2 °F 23.4 °F 28.4 °F 93% 30.10 in 10.0 mi WSW 6.9 mph - N/A   Clear
11:55 PM 30.2 °F 23.4 °F 28.4 °F 93% 30.10 in 10.0 mi WSW 6.9 mph - N/A   Clear